Location: Fontevrault
(47.1823°N, 0.0493°E)
Time: 07:54:36
(UTC+00:00)

Lacrosse 5 - Pass Details

Date: 27 October 2021
Orbit: 714 x 724 km, 57.0° (Epoch: 28 August)

Event Time Altitude Azimuth Distance (km) Brightness Sun altitude
Rises 19:45:52 0° 215° (SW) 3,126 5.4 -30.2°
Reaches altitude 10° 19:48:17 10° 210° (SSW) 2,208 4.5 -30.6°
Enters shadow 19:49:01 14° 208° (SSW) 1,941 4.2 -30.7°
